map of ETNW home
ETNW - Airport
Location
City:  Wunstorf, Lower Saxony, Germany
ICAO:ETNW

Details
Type:Airport (Flugplatz, Airfield)
Use:Military
Latitude:5227'26"N (52.457333)
Longitude:925'38"E (9.427150)
Elevation:187 ft (57 m)
Variation:2.48E (WMM2015 magnetic declination)
0.14 annual change
Runways:3
Longest:6157 × 153 ft (1877 × 46.5 m), paved

Time
Time Zone:UTC+1 (DST+2)
Local Time:

Weather
METAR:ETNW 222320Z AUTO 02003KT //// // ////// M04/M04 Q1026 ///
TAF:ETNW 222317Z 2300/2324 15004KT 2000 BR BKN003
TEMPO 2300/2308 VRB02KT 0500 FZFG OVC001
BECMG 2308/2310 28004KT 2500 BR BKN002
BECMG 2310/2312 30005KT 4000 BR BKN006
TEMPO 2316/2324 VRB02KT 2000 BR BKN003 CANCEL BY ETGL

Related Locations
Nearby:
Farthest:CHT: 11775 mi / 18951 km
Waitangi [Tuuta], CIT, NZ

Find:

   beyond  
but within

Other Information
Maps:
NOTAMs:
Links:
Sources:

  
flag of Germany
flag of Lower Saxony
  

Sectional Chart

Flight Planning
at skyvector.com

Satellite Image

Google Maps Satellite view

 

Copyright © 2004-2017 Karl L. Swartz. All rights reserved.
The Great Circle Mapper name and logo are trademarks of the Great Circle Mapper.
All other trademarks mentioned herein belong to their respective owners.
Please see credits for attibutions and further copyright information.

  Follow gcmap on Facebook Follow gcmap on Twitter Follow gcmap on Google+ GCmap on LinkedIn

hCard Microformat

Geo Microformat